Flag for Spain Weather past 2 weeks in Valencia, Spain

Now
72 °F

Clear.


Feels Like: 72 °F
Forecast: 69 / 92 °F
Wind: 1 mph from North

Location: Valencia / Aeropuerto

Current Time: Jul 5, 2015 at 5:47:03 AM

Latest Report: Jul 5, 2015 at 5:00 AM


Visibility: 10 mi

Pressure: 30.09 "Hg

Humidity: 78%

Dew point: 64 °F

Location of ValenciaLocation

Historic Weather in Valencia — Graph

°F

Valencia temperature yesterday

Maximum temperature yesterday: 90 °F (at 4:30 PM)
Minimum temperature yesterday: 72 °F (at 6:30 AM)
Average temperature yesterday: 82 °F

Past Weeks' High & Low Weather Summary

 TemperatureHumidityPressure
High93 °F (Jun 26, 5:30 PM)94% (Jun 21, 7:30 AM)30.18 "Hg (Jun 21, 7:30 AM)
Low66 °F (Jun 20, 6:00 AM)23% (Jun 26, 5:30 PM)29.80 "Hg (Jun 23, 3:30 PM)
Average79 °F61%30.07 "Hg
* Reported Jun 20 4:00 AM — Jul 5 4:30 AM, Valencia, Weather by CustomWeather, © 2015

Note: Actual official high and low records may vary slightly from our data, if they occured in-between our weather recording intervals... More about our weather records

Advertising

Valencia weather history for previous 24 hours

 ConditionsComfort  
Time TempWeatherWind HumidityBarometerVisibility
4:30 AM
Sun, Jul 5
72 °FClear.1 mph78%30.09 "Hg10 mi
4:00 AM72 °FClear.1 mph78%30.09 "Hg10 mi
3:30 AM72 °FClear.1 mph78%30.09 "Hg10 mi
3:00 AM72 °FClear.1 mph83%30.09 "Hg10 mi
2:30 AM73 °FClear.1 mph78%30.12 "Hg10 mi
2:00 AM75 °FClear.2 mph74%30.12 "Hg10 mi
1:30 AM75 °FClear.1 mph74%30.12 "Hg10 mi
1:00 AM77 °FClear.2 mph69%30.12 "Hg10 mi
12:30 AM79 °FClear.No wind65%30.12 "Hg10 mi
12:00 AM81 °FClear.1 mph66%30.12 "Hg10 mi
11:30 PM
Sat, Jul 4
81 °FClear.1 mph66%30.12 "Hg10 mi
11:00 PM81 °FClear.1 mph66%30.12 "Hg10 mi
10:30 PM81 °FClear.2 mph58%30.12 "Hg10 mi
10:00 PM81 °FPassing clouds.3 mph62%30.12 "HgN/A
9:30 PM82 °FSunny.5 mph55%30.12 "Hg10 mi
9:00 PM82 °FPassing clouds.7 mph58%30.12 "HgN/A
8:30 PM84 °FPassing clouds.7 mph51%30.09 "HgN/A
8:00 PM86 °FSunny.8 mph43%30.09 "Hg10 mi
7:30 PM86 °FPassing clouds.7 mph43%30.12 "HgN/A
7:00 PM88 °FPassing clouds.7 mph38%30.12 "HgN/A
6:30 PM88 °FPassing clouds.7 mph38%30.12 "HgN/A
6:00 PM88 °FPassing clouds.8 mph40%30.12 "HgN/A
5:30 PM90 °FPassing clouds.10 mph33%30.12 "HgN/A
5:00 PM88 °FPassing clouds.8 mph35%30.12 "HgN/A
4:30 PM90 °FPassing clouds.7 mph36%30.12 "HgN/A
4:00 PM88 °FPassing clouds.7 mph38%30.15 "HgN/A
3:30 PM88 °FPassing clouds.9 mph38%30.15 "HgN/A
3:00 PM88 °FPassing clouds.9 mph38%30.15 "HgN/A
2:30 PM88 °FSunny.7 mph38%30.15 "Hg10 mi
2:00 PM88 °FPassing clouds.8 mph38%30.15 "HgN/A
1:30 PM88 °FPassing clouds.8 mph40%30.18 "HgN/A
1:00 PM88 °FPassing clouds.9 mph38%30.18 "HgN/A
12:30 PM88 °FPassing clouds.3 mph35%30.18 "HgN/A
12:00 PM86 °FPassing clouds.2 mph43%30.18 "HgN/A
11:30 AM86 °FPassing clouds.3 mph46%30.18 "HgN/A
11:00 AM86 °FPassing clouds.No wind46%30.18 "HgN/A
10:30 AM84 °FPassing clouds.3 mph51%30.18 "HgN/A
10:00 AM82 °FPassing clouds.1 mph51%30.18 "HgN/A
9:30 AM81 °FPassing clouds.5 mph54%30.18 "HgN/A
9:00 AM79 °FPassing clouds.7 mph58%30.18 "HgN/A
8:30 AM75 °FPassing clouds.3 mph65%30.18 "HgN/A
8:00 AM73 °FPassing clouds.3 mph69%30.18 "HgN/A
7:30 AM72 °FPassing clouds.3 mph73%30.18 "HgN/A
7:00 AM72 °FPassing clouds.3 mph78%30.18 "HgN/A
6:30 AM72 °FPassing clouds.1 mph78%30.18 "HgN/A
6:00 AM73 °FPassing clouds.1 mph74%30.18 "HgN/A
5:30 AM75 °FPassing clouds.2 mph65%30.18 "HgN/A
5:00 AM75 °FPassing clouds.2 mph65%30.18 "HgN/A
Weather by CustomWeather, © 2015

See weather overviewHow to use our weather pages